Погода в Райкове

Россия / Республика Хакасия     53°31′19″N   91°10′24″E
темп.,
°C
ветер,
м/с
пор.,
м/с
влажн.,
%
обл.,
%
осадки,
мм/ч
давл.,
гПа
погр.,
м
9 мая, вс
вс901:00+12зюз8155297 0.0 1014738
04:00+10зюз4116899 0.5 1014317
07:00+12зюз71269100 1.3 10131006
10:00+7св5790100 1.6 1015427
13:00+5ссв5688100 2.3 1016579
16:00+5в1390100 1.4 1018493
19:00+5ююз2188100 2.2 1019402
22:00+4юз3492100 0.1 102095
10 мая, пн
пн1001:00+4зсз127935 0.2 102016
04:00+3сз22745 0.0 102114
07:00+4ссз23695 0.0 1023163
10:00+8с34575 0.0 10231154
13:00+9св445688 0.1 10221206
16:00+11св455070 0.0 10211657
19:00+10всв46525 0.1 10211297
22:00+7всв35650 0.0 102076
11 мая, вт
вт1101:00+5св33720 0.0 101842
04:00+4св22790 0.0 101729
07:00+5св25750 0.0 1016274
10:00+10св345744 0.0 1015838
13:00+14всв3440100 0.0 10131397
16:00+16в3332100 0.0 10111549
19:00+16ссв1140100 0.0 101143
22:00+12сз2248100 0.0 101213
12 мая, ср
ср1201:00+11зсз2254100 0.0 101234
04:00+9зсз376498 0.0 1013170
07:00+9сз587385 0.2 1014409
10:00+13с5655100 0.1 10141269
13:00+15ссв4644100 0.9 10131962
16:00+15с774089 0.0 10132015
19:00+14с674998 0.1 10151436
22:00+9с366847 0.1 1018158
13 мая, чт
чт1301:00+7сз36776 0.1 1019156
04:00+6сз23775 0.0 101941
07:00+7сз25672 0.0 1020335
10:00+11с33462 0.0 10201380
13:00+13с22345 0.0 10182012
16:00+15с11295 0.0 10172154
19:00+14юв11292 0.0 10161926
22:00+11ююв22404 0.0 101616